カタログに戻る

SL-3 DEB

運用中PO
NORAD 14454·DEBRIS·🇷🇺 Russia

打ち上げ Oct 28, 1983 から Plesetsk Cosmodrome

Loading…

次のパス (今後24時間)

TLE

最新Source: Space-Track

元期: Sep 14, 2026, 00:24 UTC

1 14454U 83109C   26257.01725910  .00000078  00000-0  26110-4 0  9995
2 14454  81.1590 276.5563 0093849 327.0790  60.7630 14.26419664229636

AllMySatでSL-3 DEBをリアルタイム追跡

Download on the App Store